This is the latest recevied weather packets stored in our database for station/object YO2MAS-13. If no packets are shown the sender has not sent any weather packets the latest 10 day(s).
| Time | Temp. | Humidity | Pressure | Rain* | Wind** | Luminosity | Snow |
|---|---|---|---|---|---|---|---|
| 1777597223 | 7.22° C | 92% | 1029.1 hPa | - | - | - | - |
| 1777596323 | 7.22° C | 92% | 1029.1 hPa | - | - | - | - |
| 1777595474 | 7.22° C | 91% | 1029.2 hPa | - | - | - | - |
| 1777595423 | 7.22° C | 91% | 1029.2 hPa | - | - | - | - |
| 1777594946 | 7.22° C | 83% | 1029.3 hPa | - | - | - | - |
| 1777594523 | 7.22° C | 89% | 1029.3 hPa | - | - | - | - |
| 1777593623 | 7.22° C | 83% | 1029.3 hPa | - | - | - | - |
| 1777593210 | 7.22° C | 81% | 1029.3 hPa | - | - | - | - |
| 1777592723 | 7.22° C | 81% | 1029.3 hPa | - | - | - | - |
| 1777591823 | 8.89° C | 68% | 1029.2 hPa | - | - | - | - |
| 1777591258 | 9.44° C | 80% | 1029.1 hPa | - | - | - | - |
| 1777590923 | 9.44° C | 80% | 1029.1 hPa | - | - | - | - |
| 1777590023 | 8.89° C | 68% | 1029.3 hPa | - | - | - | - |
| 1777589123 | 9.44° C | 66% | 1029.4 hPa | - | - | - | - |
| 1777588307 | 8.33° C | 68% | 1029.4 hPa | - | - | - | - |
| 1777588223 | 8.33° C | 68% | 1029.4 hPa | - | - | - | - |
| 1777587323 | 8.89° C | 64% | 1029.4 hPa | - | - | - | - |
| 1777586620 | 8.33° C | 61% | 1029.4 hPa | - | - | - | - |
| 1777586423 | 8.33° C | 61% | 1029.4 hPa | - | - | - | - |
| 1777585523 | 8.89° C | 59% | 1029.3 hPa | - | - | - | - |
| 1777584625 | 8.89° C | 57% | 1029.1 hPa | - | - | - | - |
| 1777583723 | 9.44° C | 54% | 1029 hPa | - | - | - | - |
| 1777582823 | 10° C | 50% | 1028.9 hPa | - | - | - | - |
| 1777581923 | 11.67° C | 50% | 1028.7 hPa | - | - | - | - |
| 1777581263 | 11.67° C | 54% | 1028.6 hPa | - | - | - | - |
* Rain since midnight (hover to see other rain measurements)
** Current wind speed in m/s (hover to see current wind gust speed)